| time (UTC) | temp F | wind direction | speed MPH | gust MPH | rain 1hr in | rain 24hr in | rain mn in | humidity % | barometer mb |
| 20260505022853 | 69 | 322 | 1.0 | 5.0 | 0.00 | 0.00 | 0.00 | 1010.8 | |
| 20260505022644 | 69 | 322 | 1.0 | 5.0 | 0.00 | 0.00 | 0.00 | 1010.8 | |
| 20260505021944 | 70 | 235 | 0.0 | 4.0 | 0.00 | 0.00 | 0.00 | 1010.8 | |
| 20260505021853 | 71 | 250 | 0.0 | 3.0 | 0.00 | 0.00 | 0.00 | 1010.8 | |
| 20260505021243 | 71 | 281 | 1.0 | 7.0 | 0.00 | 0.00 | 0.00 | 1010.7 | |
| 20260505020853 | 71 | 214 | 0.0 | 1.0 | 0.00 | 0.00 | 0.00 | 1010.8 | |
| 20260505020545 | 71 | 214 | 0.0 | 1.0 | 0.00 | 0.00 | 0.00 | 1010.8 | |
| 20260505015843 | 72 | 269 | 1.0 | 5.0 | 0.00 | 0.00 | 0.00 | 1010.8 | |
| 20260505015145 | 72 | 207 | 1.0 | 4.0 | 0.00 | 0.00 | 0.00 | 1010.8 | |
| 20260505014853 | 73 | 180 | 0.0 | 3.0 | 0.00 | 0.00 | 0.00 | 1010.8 | |
| 20260505014444 | 73 | 180 | 0.0 | 3.0 | 0.00 | 0.00 | 0.00 | 1010.8 | |
| 20260505013853 | 74 | 242 | 1.0 | 4.0 | 0.00 | 0.00 | 0.00 | 1011.1 | |
| 20260505013744 | 74 | 242 | 1.0 | 4.0 | 0.00 | 0.00 | 0.00 | 1011.1 | |
| 20260505013044 | 74 | 235 | 1.0 | 5.0 | 0.00 | 0.00 | 0.00 | 1011.1 | |
| 20260505012853 | 74 | 267 | 1.0 | 3.0 | 0.00 | 0.00 | 0.00 | 1010.9 | |
| 20260505012343 | 75 | 262 | 0.0 | 1.0 | 0.00 | 0.00 | 0.00 | 1011.1 | |
| 20260505011852 | 75 | 190 | 1.0 | 4.0 | 0.00 | 0.00 | 0.00 | 1011.2 | |
| 20260505011644 | 75 | 190 | 1.0 | 4.0 | 0.00 | 0.00 | 0.00 | 1011.2 | |
| 20260505010943 | 75 | 283 | 1.0 | 4.0 | 0.00 | 0.00 | 0.00 | 1011.3 | |
| 20260505010852 | 76 | 212 | 0.0 | 4.0 | 0.00 | 0.00 | 0.00 | 1011.3 | |
| 20260505010243 | 76 | 246 | 1.0 | 5.0 | 0.00 | 0.00 | 0.00 | 1011.4 | |
| 20260505005853 | 76 | 322 | 1.0 | 7.0 | 0.00 | 0.00 | 0.00 | 1011.5 | |
| 20260505005542 | 76 | 322 | 1.0 | 7.0 | 0.00 | 0.00 | 0.00 | 1011.5 | |
| 20260505004843 | 77 | 249 | 1.0 | 4.0 | 0.00 | 0.00 | 0.00 | 1011.4 | |
| 20260505004143 | 77 | 231 | 2.0 | 5.0 | 0.00 | 0.00 | 0.00 | 1011.5 | |
| 20260505003853 | 78 | 160 | 1.0 | 5.0 | 0.00 | 0.00 | 0.00 | 1011.4 | |
| 20260505003443 | 78 | 160 | 1.0 | 5.0 | 0.00 | 0.00 | 0.00 | 1011.4 | |
| 20260505002853 | 78 | 270 | 3.0 | 8.0 | 0.00 | 0.00 | 0.00 | 1011.5 | |
| 20260505002742 | 78 | 270 | 3.0 | 8.0 | 0.00 | 0.00 | 0.00 | 1011.5 | |
| 20260505002043 | 78 | 288 | 2.0 | 6.0 | 0.00 | 0.00 | 0.00 | 1011.4 | |
| 20260505001853 | 78 | 277 | 3.0 | 6.0 | 0.00 | 0.00 | 0.00 | 1011.4 | |
| 20260505001344 | 78 | 269 | 2.0 | 6.0 | 0.00 | 0.00 | 0.00 | 1011.4 | |
| 20260505000843 | 78 | 214 | 2.0 | 6.0 | 0.00 | 0.00 | 0.00 | 1011.5 | |
| 20260505000145 | 79 | 293 | 1.0 | 5.0 | 0.00 | 0.00 | 0.00 | 1011.6 | |
| 20260504235852 | 80 | 257 | 1.0 | 4.0 | 0.00 | 0.00 | 0.00 | 1011.6 | |
| 20260504235443 | 80 | 257 | 1.0 | 4.0 | 0.00 | 0.00 | 0.00 | 1011.6 | |
| 20260504234853 | 80 | 239 | 2.0 | 7.0 | 0.00 | 0.00 | 0.00 | 1011.6 | |
| 20260504234743 | 80 | 239 | 2.0 | 7.0 | 0.00 | 0.00 | 0.00 | 1011.6 | |
| 20260504234042 | 80 | 239 | 1.0 | 7.0 | 0.00 | 0.00 | 0.00 | 1011.5 | |
| 20260504233852 | 80 | 183 | 3.0 | 7.0 | 0.00 | 0.00 | 0.00 | 1011.6 | |
| 20260504233343 | 81 | 259 | 1.0 | 9.0 | 0.00 | 0.00 | 0.00 | 1011.4 | |
| 20260504232853 | 81 | 260 | 1.0 | 4.0 | 0.00 | 0.00 | 0.00 | 1011.5 | |
| 20260504232647 | 81 | 260 | 1.0 | 4.0 | 0.00 | 0.00 | 0.00 | 1011.5 | |
| 20260504231943 | 80 | 166 | 2.0 | 7.0 | 0.00 | 0.00 | 0.00 | 1011.5 | |
| 20260504231852 | 80 | 240 | 1.0 | 7.0 | 0.00 | 0.00 | 0.00 | 1011.5 | |
| 20260504231243 | 80 | 228 | 1.0 | 6.0 | 0.00 | 0.00 | 0.00 | 1011.6 | |
| 20260504230855 | 79 | 294 | 4.0 | 11.0 | 0.00 | 0.00 | 0.00 | 1011.6 | |
| 20260504230542 | 79 | 294 | 4.0 | 11.0 | 0.00 | 0.00 | 0.00 | 1011.6 | |
| 20260504225842 | 79 | 226 | 2.0 | 8.0 | 0.00 | 0.00 | 0.00 | 1011.6 | |
| 20260504225142 | 80 | 200 | 1.0 | 8.0 | 0.00 | 0.00 | 0.00 | 1011.7 | |
| 20260504224852 | 79 | 252 | 1.0 | 5.0 | 0.00 | 0.00 | 0.00 | 1011.8 | |
| 20260504224442 | 79 | 252 | 1.0 | 5.0 | 0.00 | 0.00 | 0.00 | 1011.8 | |
| 20260504223854 | 79 | 277 | 2.0 | 8.0 | 0.00 | 0.00 | 0.00 | 1011.8 | |
| 20260504223744 | 79 | 277 | 2.0 | 8.0 | 0.00 | 0.00 | 0.00 | 1011.8 | |
| 20260504223044 | 79 | 290 | 2.0 | 8.0 | 0.00 | 0.00 | 0.00 | 1011.8 | |
| 20260504222853 | 80 | 219 | 2.0 | 7.0 | 0.00 | 0.00 | 0.00 | 1011.9 | |
| 20260504222344 | 80 | 281 | 3.0 | 8.0 | 0.00 | 0.00 | 0.00 | 1011.9 | |
| 20260504221852 | 79 | 231 | 0.0 | 2.0 | 0.00 | 0.00 | 0.00 | 1011.8 | |
| 20260504221643 | 79 | 231 | 0.0 | 2.0 | 0.00 | 0.00 | 0.00 | 1011.8 | |
| 20260504220943 | 79 | 233 | 1.0 | 6.0 | 0.00 | 0.00 | 0.00 | 1011.9 | |
| 20260504220852 | 79 | 276 | 2.0 | 5.0 | 0.00 | 0.00 | 0.00 | 1011.8 | |
| 20260504220243 | 79 | 267 | 1.0 | 4.0 | 0.00 | 0.00 | 0.00 | 1011.9 | |
| 20260504215853 | 79 | 201 | 1.0 | 6.0 | 0.00 | 0.00 | 0.00 | 1011.8 | |
| 20260504215543 | 79 | 201 | 1.0 | 6.0 | 0.00 | 0.00 | 0.00 | 1011.8 | |
| 20260504214842 | 78 | 218 | 3.0 | 6.0 | 0.00 | 0.00 | 0.00 | 1012.0 | |
| 20260504214143 | 79 | 278 | 2.0 | 8.0 | 0.00 | 0.00 | 0.00 | 1012.0 | |
| 20260504213852 | 78 | 312 | 2.0 | 7.0 | 0.00 | 0.00 | 0.00 | 1012.0 | |
| 20260504213442 | 78 | 312 | 2.0 | 7.0 | 0.00 | 0.00 | 0.00 | 1012.0 | |
| 20260504212854 | 78 | 212 | 3.0 | 8.0 | 0.00 | 0.00 | 0.00 | 1012.0 | |
| 20260504212743 | 78 | 212 | 3.0 | 8.0 | 0.00 | 0.00 | 0.00 | 1012.0 | |
| 20260504212042 | 78 | 228 | 2.0 | 8.0 | 0.00 | 0.00 | 0.00 | 1012.0 | |
| 20260504211853 | 78 | 217 | 3.0 | 9.0 | 0.00 | 0.00 | 0.00 | 1011.9 | |
| 20260504211342 | 78 | 207 | 2.0 | 5.0 | 0.00 | 0.00 | 0.00 | 1011.8 | |
| 20260504210853 | 78 | 332 | 1.0 | 6.0 | 0.00 | 0.00 | 0.00 | 1011.9 | |
| 20260504210643 | 78 | 332 | 1.0 | 6.0 | 0.00 | 0.00 | 0.00 | 1011.9 | |
| 20260504205942 | 77 | 271 | 4.0 | 11.0 | 0.00 | 0.00 | 0.00 | 1011.8 | |
| 20260504205855 | 78 | 205 | 3.0 | 9.0 | 0.00 | 0.00 | 0.00 | 1011.9 | |
| 20260504205243 | 78 | 293 | 3.0 | 8.0 | 0.00 | 0.00 | 0.00 | 1012.0 | |
| 20260504204853 | 78 | 269 | 3.0 | 8.0 | 0.00 | 0.00 | 0.00 | 1011.8 | |
| 20260504204618 | 78 | 269 | 3.0 | 8.0 | 0.00 | 0.00 | 0.00 | 1011.8 | |
| 20260504204542 | 78 | 269 | 3.0 | 8.0 | 0.00 | 0.00 | 0.00 | 1011.8 | |
| 20260504203842 | 76 | 280 | 3.0 | 9.0 | 0.00 | 0.00 | 0.00 | 1011.7 | |
| 20260504203142 | 76 | 203 | 2.0 | 9.0 | 0.00 | 0.00 | 0.00 | 1011.8 | |
| 20260504202852 | 77 | 280 | 2.0 | 8.0 | 0.00 | 0.00 | 0.00 | 1011.7 | |
| 20260504202442 | 77 | 280 | 2.0 | 8.0 | 0.00 | 0.00 | 0.00 | 1011.7 | |
| 20260504201853 | 77 | 316 | 2.0 | 7.0 | 0.00 | 0.00 | 0.00 | 1011.7 | |
| 20260504201742 | 77 | 316 | 2.0 | 7.0 | 0.00 | 0.00 | 0.00 | 1011.7 | |
| 20260504201042 | 75 | 267 | 2.0 | 5.0 | 0.00 | 0.00 | 0.00 | 1011.6 | |
| 20260504200852 | 75 | 264 | 2.0 | 7.0 | 0.00 | 0.00 | 0.00 | 1011.7 | |
| 20260504200342 | 75 | 215 | 2.0 | 7.0 | 0.00 | 0.00 | 0.00 | 1011.7 | |
| 20260504195852 | 75 | 255 | 3.0 | 10.0 | 0.00 | 0.00 | 0.00 | 1011.6 | |
| 20260504195642 | 75 | 255 | 3.0 | 10.0 | 0.00 | 0.00 | 0.00 | 1011.6 | |
| 20260504194942 | 76 | 214 | 2.0 | 8.0 | 0.00 | 0.00 | 0.00 | 1011.6 | |
| 20260504194852 | 77 | 273 | 3.0 | 10.0 | 0.00 | 0.00 | 0.00 | 1011.5 | |
| 20260504194242 | 76 | 269 | 2.0 | 6.0 | 0.00 | 0.00 | 0.00 | 1011.6 | |
| 20260504193852 | 76 | 290 | 3.0 | 8.0 | 0.00 | 0.00 | 0.00 | 1011.6 | |
| 20260504193542 | 76 | 290 | 3.0 | 8.0 | 0.00 | 0.00 | 0.00 | 1011.6 | |
| 20260504192842 | 76 | 253 | 2.0 | 5.0 | 0.00 | 0.00 | 0.00 | 1011.7 | |
| 20260504192143 | 76 | 242 | 2.0 | 7.0 | 0.00 | 0.00 | 0.00 | 1011.6 | |
| 20260504191852 | 75 | 274 | 2.0 | 6.0 | 0.00 | 0.00 | 0.00 | 1011.6 | |
| 20260504191442 | 75 | 274 | 2.0 | 6.0 | 0.00 | 0.00 | 0.00 | 1011.6 | |
| 20260504190852 | 74 | 228 | 2.0 | 6.0 | 0.00 | 0.00 | 0.00 | 1011.8 | |
| 20260504190742 | 74 | 228 | 2.0 | 6.0 | 0.00 | 0.00 | 0.00 | 1011.8 | |
| 20260504190043 | 74 | 195 | 2.0 | 7.0 | 0.00 | 0.00 | 0.00 | 1011.5 | |
| 20260504185852 | 74 | 276 | 1.0 | 8.0 | 0.00 | 0.00 | 0.00 | 1011.6 | |
| 20260504185342 | 73 | 257 | 2.0 | 5.0 | 0.00 | 0.00 | 0.00 | 1011.6 | |
| 20260504184856 | 73 | 260 | 2.0 | 7.0 | 0.00 | 0.00 | 0.00 | 1011.5 | |
| 20260504184642 | 73 | 260 | 2.0 | 7.0 | 0.00 | 0.00 | 0.00 | 1011.5 | |
| 20260504183942 | 72 | 287 | 1.0 | 5.0 | 0.00 | 0.00 | 0.00 | 1011.5 | |
| 20260504183852 | 71 | 270 | 1.0 | 4.0 | 0.00 | 0.00 | 0.00 | 1011.5 | |
| 20260504183242 | 71 | 283 | 1.0 | 5.0 | 0.00 | 0.00 | 0.00 | 1011.5 | |
| 20260504182852 | 71 | 284 | 1.0 | 4.0 | 0.00 | 0.00 | 0.00 | 1011.4 | |
| 20260504182543 | 71 | 284 | 1.0 | 4.0 | 0.00 | 0.00 | 0.00 | 1011.4 | |
| 20260504181843 | 70 | 291 | 2.0 | 6.0 | 0.00 | 0.00 | 0.00 | 1011.5 | |
| 20260504181141 | 70 | 197 | 0.0 | 2.0 | 0.00 | 0.00 | 0.00 | 1011.5 | |
| 20260504180851 | 70 | 215 | 1.0 | 5.0 | 0.00 | 0.00 | 0.00 | 1011.5 | |
| 20260504180442 | 70 | 215 | 1.0 | 5.0 | 0.00 | 0.00 | 0.00 | 1011.5 | |
| 20260504175852 | 69 | 240 | 1.0 | 3.0 | 0.00 | 0.00 | 0.00 | 1011.4 | |
| 20260504175742 | 69 | 240 | 1.0 | 3.0 | 0.00 | 0.00 | 0.00 | 1011.4 | |
| 20260504175042 | 68 | 294 | 2.0 | 6.0 | 0.00 | 0.00 | 0.00 | 1011.6 | |
| 20260504174852 | 68 | 276 | 2.0 | 7.0 | 0.00 | 0.00 | 0.00 | 1011.4 | |
| 20260504174342 | 67 | 266 | 1.0 | 3.0 | 0.00 | 0.00 | 0.00 | 1011.5 | |
| 20260504173852 | 66 | 280 | 1.0 | 4.0 | 0.00 | 0.00 | 0.00 | 1011.5 | |
| 20260504173641 | 66 | 280 | 1.0 | 4.0 | 0.00 | 0.00 | 0.00 | 1011.5 | |
| 20260504172941 | 66 | 218 | 2.0 | 5.0 | 0.00 | 0.00 | 0.00 | 1011.4 | |
| 20260504172852 | 65 | 238 | 1.0 | 3.0 | 0.00 | 0.00 | 0.00 | 1011.3 | |
| 20260504172324 | 65 | 198 | 1.0 | 3.0 | 0.00 | 0.00 | 0.00 | 1011.4 | |
| 20260504172243 | 65 | 198 | 1.0 | 3.0 | 0.00 | 0.00 | 0.00 | 1011.4 | |
| 20260504171853 | 64 | 229 | 1.0 | 5.0 | 0.00 | 0.00 | 0.00 | 1011.4 | |
| 20260504171545 | 64 | 229 | 1.0 | 5.0 | 0.00 | 0.00 | 0.00 | 1011.4 | |
| 20260504170843 | 63 | 0 | 0.0 | 0.0 | 0.00 | 0.00 | 0.00 | 1011.3 | |
| 20260504170141 | 63 | 205 | 0.0 | 3.0 | 0.00 | 0.00 | 0.00 | 1011.3 | |
| 20260504150941 | 64 | 0 | 0.0 | 0.0 | 0.00 | 0.00 | 0.00 | 1010.3 | |
| 20260504150851 | 63 | 231 | 0.0 | 1.0 | 0.00 | 0.00 | 0.00 | 1010.1 | |
| 20260504150241 | 63 | 0 | 0.0 | 0.0 | 0.00 | 0.00 | 0.00 | 1009.9 | |
| 20260504140853 | 60 | 0 | 0.0 | 0.0 | 0.00 | 0.00 | 0.00 | 1010.0 | |
| 20260504140641 | 60 | 0 | 0.0 | 0.0 | 0.00 | 0.00 | 0.00 | 1010.0 | |
| 20260504130341 | 57 | 0 | 0.0 | 0.0 | 0.00 | 0.00 | 0.00 | 1009.7 | |
| 20260504110441 | 59 | 0 | 0.0 | 0.0 | 0.00 | 0.00 | 0.00 | 1009.8 | |
| 20260504100141 | 62 | 0 | 0.0 | 0.0 | 0.00 | 0.00 | 0.00 | 1009.7 | |
| 20260504081852 | 65 | 304 | 0.0 | 1.0 | 0.00 | 0.00 | 0.00 | 1010.0 | |
| 20260504081641 | 65 | 304 | 0.0 | 1.0 | 0.00 | 0.00 | 0.00 | 1010.0 | |
| 20260504080941 | 64 | 336 | 0.0 | 3.0 | 0.00 | 0.00 | 0.00 | 1009.9 | |
| 20260504080850 | 63 | 288 | 0.0 | 5.0 | 0.00 | 0.00 | 0.00 | 1010.1 | |
| 20260504080240 | 62 | 0 | 0.0 | 0.0 | 0.00 | 0.00 | 0.00 | 1010.1 | |
| 20260504070130 | 63 | 0 | 0.0 | 0.0 | 0.00 | 0.00 | 0.00 | 1010.2 | |
| 20260504050740 | 66 | 0 | 0.0 | 0.0 | 0.00 | 0.00 | 0.00 | 1010.4 | |
| 20260504045850 | 66 | 332 | 0.0 | 4.0 | 0.00 | 0.00 | 0.00 | 1010.5 | |
| 20260504045340 | 66 | 0 | 0.0 | 0.0 | 0.00 | 0.00 | 0.00 | 1010.4 | |
| 20260504044850 | 66 | 0 | 0.0 | 0.0 | 0.00 | 0.00 | 0.00 | 1010.4 | |
| 20260504044640 | 66 | 0 | 0.0 | 0.0 | 0.00 | 0.00 | 0.00 | 1010.4 | |
| 20260504043940 | 66 | 0 | 0.0 | 0.0 | 0.00 | 0.00 | 0.00 | 1010.5 | |
| 20260504043850 | 67 | 0 | 0.0 | 0.0 | 0.00 | 0.00 | 0.00 | 1010.6 | |
| 20260504043240 | 67 | 0 | 0.0 | 0.0 | 0.00 | 0.00 | 0.00 | 1010.6 | |
| 20260504042850 | 67 | 0 | 0.0 | 0.0 | 0.00 | 0.00 | 0.00 | 1010.6 | |
| 20260504042542 | 67 | 0 | 0.0 | 0.0 | 0.00 | 0.00 | 0.00 | 1010.6 | |
| 20260504041840 | 66 | 0 | 0.0 | 0.0 | 0.00 | 0.00 | 0.00 | 1010.5 | |
| 20260504041141 | 66 | 0 | 0.0 | 0.0 | 0.00 | 0.00 | 0.00 | 1010.6 | |
| 20260504040850 | 66 | 0 | 0.0 | 0.0 | 0.00 | 0.00 | 0.00 | 1010.6 | |
| 20260504040440 | 66 | 0 | 0.0 | 0.0 | 0.00 | 0.00 | 0.00 | 1010.6 | |
| 20260504035850 | 67 | 0 | 0.0 | 0.0 | 0.00 | 0.00 | 0.00 | 1010.6 | |
| 20260504035742 | 67 | 0 | 0.0 | 0.0 | 0.00 | 0.00 | 0.00 | 1010.6 | |
| 20260504035041 | 67 | 0 | 0.0 | 0.0 | 0.00 | 0.00 | 0.00 | 1010.4 | |
| 20260504034853 | 67 | 0 | 0.0 | 0.0 | 0.00 | 0.00 | 0.00 | 1010.5 | |
| 20260504034340 | 67 | 0 | 0.0 | 0.0 | 0.00 | 0.00 | 0.00 | 1010.6 | |
| 20260504033850 | 67 | 0 | 0.0 | 0.0 | 0.00 | 0.00 | 0.00 | 1010.5 | |
| 20260504033640 | 67 | 0 | 0.0 | 0.0 | 0.00 | 0.00 | 0.00 | 1010.5 | |
| 20260504032940 | 67 | 0 | 0.0 | 0.0 | 0.00 | 0.00 | 0.00 | 1010.5 | |
| 20260504032850 | 68 | 0 | 0.0 | 0.0 | 0.00 | 0.00 | 0.00 | 1010.4 | |
| 20260504032240 | 68 | 0 | 0.0 | 0.0 | 0.00 | 0.00 | 0.00 | 1010.5 | |
| 20260504031850 | 68 | 0 | 0.0 | 0.0 | 0.00 | 0.00 | 0.00 | 1010.5 | |
| 20260504031540 | 68 | 0 | 0.0 | 0.0 | 0.00 | 0.00 | 0.00 | 1010.5 | |
| 20260504030840 | 69 | 0 | 0.0 | 0.0 | 0.00 | 0.00 | 0.00 | 1010.5 | |
| 20260504030140 | 69 | 0 | 0.0 | 0.0 | 0.00 | 0.00 | 0.00 | 1010.6 | |
| 20260504025850 | 69 | 0 | 0.0 | 0.0 | 0.00 | 0.00 | 0.00 | 1010.7 | |
| 20260504025440 | 69 | 0 | 0.0 | 0.0 | 0.00 | 0.00 | 0.00 | 1010.7 | |
| 20260504024851 | 70 | 0 | 0.0 | 0.0 | 0.00 | 0.00 | 0.00 | 1010.7 | |
| 20260504024740 | 70 | 0 | 0.0 | 0.0 | 0.00 | 0.00 | 0.00 | 1010.7 | |
| 20260504024041 | 70 | 0 | 0.0 | 0.0 | 0.00 | 0.00 | 0.00 | 1010.8 | |
| 20260504023852 | 71 | 0 | 0.0 | 0.0 | 0.00 | 0.00 | 0.00 | 1010.8 | |
| 20260504023340 | 71 | 0 | 0.0 | 0.0 | 0.00 | 0.00 | 0.00 | 1010.8 |